Hourly Weather Drahichyn

Today, 2 October, Friday

Time Temperature Precipitation Wind Pressure Humidity
00:00 +13°C° 0 mm 6 mps 743 mmHg 88%
01:00 +12°C° 0 mm 5 mps 743 mmHg 90%
02:00 +12°C° 0 mm 5 mps 743 mmHg 92%
03:00 +10°C° 0 mm 5 mps 743 mmHg 92%
04:00 +10°C° 0 mm 5 mps 743 mmHg 92%
05:00 +10°C° 0 mm 5 mps 743 mmHg 92%
06:00 +10°C° 0 mm 6 mps 743 mmHg 91%
07:00 +10°C° 0 mm 6 mps 743 mmHg 91%
08:00 +11°C° 0 mm 6 mps 744 mmHg 90%
09:00 +11°C° 0.1 mm 6 mps 744 mmHg 89%
10:00 +13°C° 0.1 mm 5 mps 744 mmHg 87%
11:00 +13°C° 0.1 mm 5 mps 744 mmHg 86%
12:00 +14°C° 0 mm 5 mps 744 mmHg 83%
13:00 +15°C° 0 mm 5 mps 744 mmHg 80%
14:00 +15°C° 0 mm 5 mps 745 mmHg 76%
15:00 +15°C° 0.1 mm 5 mps 745 mmHg 77%
16:00 +15°C° 0.1 mm 5 mps 745 mmHg 78%
17:00 +15°C° 0.1 mm 5 mps 745 mmHg 78%
18:00 +14°C° 0.2 mm 5 mps 745 mmHg 81%
19:00 +14°C° 0.2 mm 5 mps 745 mmHg 83%
20:00 +13°C° 0.2 mm 6 mps 745 mmHg 86%
21:00 +13°C° 0.1 mm 5 mps 745 mmHg 88%
22:00 +13°C° 0.1 mm 5 mps 745 mmHg 91%
23:00 +12°C° 0.1 mm 4 mps 745 mmHg 93%

Tomorrow, 3 October, Saturday

Time Temperature Precipitation Wind Pressure Humidity
00:00 +12°C° 0 mm 4 mps 746 mmHg 94%
01:00 +12°C° 0 mm 4 mps 746 mmHg 94%
02:00 +12°C° 0 mm 4 mps 746 mmHg 94%
03:00 +12°C° 0 mm 4 mps 746 mmHg 94%
04:00 +12°C° 0 mm 4 mps 746 mmHg 94%
05:00 +11°C° 0 mm 4 mps 746 mmHg 95%
06:00 +12°C° 0.2 mm 4 mps 746 mmHg 94%
07:00 +12°C° 0.2 mm 4 mps 746 mmHg 93%
08:00 +12°C° 0.2 mm 4 mps 746 mmHg 92%
09:00 +13°C° 0.5 mm 5 mps 746 mmHg 89%
10:00 +14°C° 0.5 mm 5 mps 746 mmHg 87%
11:00 +14°C° 0.5 mm 6 mps 746 mmHg 84%
12:00 +16°C° 0 mm 6 mps 746 mmHg 79%
13:00 +17°C° 0 mm 7 mps 745 mmHg 73%
14:00 +18°C° 0 mm 7 mps 745 mmHg 68%
15:00 +18°C° 0 mm 7 mps 745 mmHg 69%
16:00 +19°C° 0 mm 6 mps 745 mmHg 69%
17:00 +19°C° 0 mm 6 mps 745 mmHg 70%
18:00 +17°C° 0 mm 6 mps 745 mmHg 71%
19:00 +17°C° 0 mm 6 mps 745 mmHg 72%
20:00 +16°C° 0 mm 6 mps 745 mmHg 73%
21:00 +16°C° 0 mm 6 mps 745 mmHg 72%
22:00 +16°C° 0 mm 6 mps 745 mmHg 71%
23:00 +16°C° 0 mm 6 mps 745 mmHg 70%

Day after tomorrow, 4 October, Sunday

Time Temperature Precipitation Wind Pressure Humidity
00:00 +16°C° 0 mm 6 mps 745 mmHg 72%
01:00 +15°C° 0 mm 5 mps 745 mmHg 74%
02:00 +15°C° 0 mm 5 mps 745 mmHg 76%
03:00 +15°C° 0 mm 5 mps 745 mmHg 76%
04:00 +15°C° 0 mm 6 mps 745 mmHg 76%
05:00 +14°C° 0 mm 6 mps 745 mmHg 76%
06:00 +14°C° 0 mm 6 mps 744 mmHg 76%
07:00 +15°C° 0 mm 7 mps 744 mmHg 77%
08:00 +15°C° 0 mm 7 mps 744 mmHg 77%
09:00 +16°C° 0 mm 7 mps 744 mmHg 73%
10:00 +18°C° 0 mm 7 mps 745 mmHg 69%
11:00 +20°C° 0 mm 7 mps 745 mmHg 65%
12:00 +21°C° 0 mm 8 mps 745 mmHg 63%
13:00 +22°C° 0 mm 8 mps 745 mmHg 61%
14:00 +23°C° 0 mm 8 mps 745 mmHg 59%
15:00 +23°C° 0 mm 7 mps 745 mmHg 62%
16:00 +22°C° 0 mm 6 mps 745 mmHg 65%
17:00 +22°C° 0 mm 5 mps 745 mmHg 68%
18:00 +21°C° 0 mm 5 mps 745 mmHg 72%
19:00 +20°C° 0 mm 5 mps 746 mmHg 76%
20:00 +19°C° 0 mm 5 mps 746 mmHg 80%
21:00 +19°C° 0 mm 4 mps 746 mmHg 81%
22:00 +18°C° 0 mm 4 mps 747 mmHg 83%
23:00 +18°C° 0 mm 4 mps 747 mmHg 84%

5 October, Monday

Time Temperature Precipitation Wind Pressure Humidity
00:00 +18°C° 0.1 mm 4 mps 747 mmHg 84%
01:00 +17°C° 0.1 mm 4 mps 747 mmHg 83%
02:00 +16°C° 0.1 mm 5 mps 747 mmHg 83%
03:00 +16°C° 0.1 mm 5 mps 747 mmHg 83%
04:00 +16°C° 0.1 mm 5 mps 747 mmHg 83%
05:00 +16°C° 0.1 mm 6 mps 747 mmHg 82%
06:00 +16°C° 0.1 mm 6 mps 746 mmHg 82%
07:00 +16°C° 0.1 mm 6 mps 746 mmHg 82%
08:00 +16°C° 0.1 mm 6 mps 746 mmHg 83%
09:00 +17°C° 0 mm 6 mps 746 mmHg 79%
10:00 +20°C° 0 mm 6 mps 746 mmHg 75%
11:00 +21°C° 0 mm 7 mps 746 mmHg 72%
12:00 +22°C° 0 mm 7 mps 746 mmHg 69%
13:00 +23°C° 0 mm 7 mps 746 mmHg 67%
14:00 +24°C° 0 mm 7 mps 746 mmHg 64%
15:00 +23°C° 0 mm 7 mps 746 mmHg 66%
16:00 +23°C° 0 mm 6 mps 745 mmHg 69%
17:00 +22°C° 0 mm 6 mps 745 mmHg 71%
18:00 +22°C° 0.4 mm 6 mps 745 mmHg 74%
19:00 +21°C° 0.4 mm 6 mps 745 mmHg 77%
20:00 +20°C° 0.4 mm 6 mps 745 mmHg 80%
21:00 +20°C° 0.3 mm 6 mps 745 mmHg 79%
22:00 +19°C° 0.3 mm 6 mps 745 mmHg 78%
23:00 +19°C° 0.3 mm 6 mps 746 mmHg 77%

6 October, Tuesday

Time Temperature Precipitation Wind Pressure Humidity
00:00 +19°C° 0.2 mm 6 mps 746 mmHg 78%
01:00 +19°C° 0.2 mm 5 mps 745 mmHg 80%
02:00 +17°C° 0.2 mm 5 mps 745 mmHg 82%
03:00 +17°C° 0 mm 5 mps 746 mmHg 83%
04:00 +17°C° 0 mm 5 mps 746 mmHg 84%
05:00 +17°C° 0 mm 5 mps 746 mmHg 85%
06:00 +17°C° 0 mm 5 mps 746 mmHg 85%
07:00 +18°C° 0 mm 4 mps 746 mmHg 85%
08:00 +18°C° 0 mm 4 mps 747 mmHg 85%
09:00 +19°C° 0 mm 4 mps 747 mmHg 81%
10:00 +20°C° 0 mm 4 mps 747 mmHg 77%
11:00 +21°C° 0 mm 4 mps 747 mmHg 73%
12:00 +20°C° 0 mm 4 mps 747 mmHg 75%
13:00 +20°C° 0 mm 4 mps 747 mmHg 77%
14:00 +19°C° 0 mm 4 mps 747 mmHg 80%
15:00 +18°C° 1.1 mm 4 mps 746 mmHg 85%
16:00 +17°C° 1.1 mm 4 mps 746 mmHg 90%
17:00 +15°C° 1.1 mm 4 mps 746 mmHg 94%
18:00 +17°C° 0.7 mm 4 mps 745 mmHg 92%
19:00 +17°C° 0.7 mm 4 mps 745 mmHg 90%
20:00 +17°C° 0.7 mm 4 mps 745 mmHg 88%
21:00 +16°C° 0 mm 5 mps 744 mmHg 82%
22:00 +16°C° 0 mm 5 mps 744 mmHg 77%
23:00 +16°C° 0 mm 6 mps 744 mmHg 72%

7 October, Wednesday

Time Temperature Precipitation Wind Pressure Humidity
00:00 +16°C° 0 mm 6 mps 744 mmHg 72%
01:00 +16°C° 0 mm 6 mps 744 mmHg 73%
02:00 +16°C° 0 mm 6 mps 744 mmHg 73%
03:00 +15°C° 0.1 mm 5 mps 744 mmHg 79%
04:00 +15°C° 0.1 mm 5 mps 744 mmHg 84%
05:00 +15°C° 0.1 mm 4 mps 745 mmHg 89%
06:00 +14°C° 0.3 mm 4 mps 745 mmHg 89%
07:00 +14°C° 0.3 mm 4 mps 746 mmHg 88%
08:00 +13°C° 0.3 mm 3 mps 747 mmHg 88%
09:00 +14°C° 0 mm 3 mps 747 mmHg 85%
10:00 +15°C° 0 mm 2 mps 748 mmHg 82%
11:00 +16°C° 0 mm 2 mps 748 mmHg 79%
12:00 +16°C° 0 mm 2 mps 748 mmHg 76%
13:00 +17°C° 0 mm 2 mps 748 mmHg 73%
14:00 +18°C° 0 mm 2 mps 749 mmHg 69%
15:00 +17°C° 0 mm 2 mps 749 mmHg 73%
16:00 +17°C° 0 mm 2 mps 749 mmHg 77%
17:00 +16°C° 0 mm 2 mps 749 mmHg 80%
18:00 +15°C° 0 mm 2 mps 749 mmHg 84%
19:00 +15°C° 0 mm 2 mps 749 mmHg 88%
20:00 +14°C° 0 mm 2 mps 749 mmHg 92%
21:00 +14°C° 0 mm 2 mps 749 mmHg 93%
22:00 +13°C° 0 mm 2 mps 749 mmHg 94%
23:00 +13°C° 0 mm 1 mps 749 mmHg 94%
Show more